Location: Pedholt
(56.0260°N, 10.2097°E)
Time: 07:46:07
(UTC+00:00)

Transit 2A Rocket - Pass Details

Date: 02 August 2021
Orbit: 586 x 917 km, 66.7° (Epoch: 24 September)

Event Time Altitude Azimuth Distance (km) Brightness Sun altitude
Rises 21:44:23 0° 314° (NW) 3,224 9.7 -13.4°
Reaches altitude 10° 21:46:46 10° 309° (NW) 2,346 8.6 -13.6°
Maximum altitude 21:51:54 45° 238° (WSW) 1,131 5.8 -13.9°
Enters shadow 21:55:44 19° 175° (S) 1,941 6.5 -14.1°
Drops below altitude 10° 21:57:25 10° 168° (SSE) 2,523 - -14.2°
Sets 22:00:05 0° 162° (SSE) 3,491 - -14.3°
